星链-37860(STARLINK-37860)

导读

STARLINK-37860(NORAD编号69554)是美国太空探索技术公司(SpaceX)星链星座的V1.5版本通信卫星,于2025年12月随星链Group 6批次任务由猎鹰9号火箭发射入轨。 该卫星运行在高度约514-515公里的近地轨道,轨道倾角43°,周期94.9分钟,配备星间激光通信模块,可高效参与全球低轨宽带网络组网。截至2026年6月仍处于正常运营状态,承担互联网接入服务支撑任务,是星链全球覆盖网络的组成部分。

Basic Information
目录编号:
69554
目录名称:
STARLINK-37860
国际标识:
2026-135J
轨道中心:
EARTH
卫星名称:
星链-37860
卫星全名:
星链-37860(STARLINK-37860)
卫星状态:
在轨 (已飞行81 天)
发射日期:
2026-06-15 UTC
国别 :
美国 (US)
星等 :
--
Orbit Information
数据来源 国际轨道数据
星历时间: 2026-09-02T20:28:18+0800
1天前
查看轨道信息
半长轴: 6843.667km
偏心率: 0.0001003
轨道倾角: 97.284°
近地点辐角 112.395°
升交点赤经 273.450°
平近点角 247.740°
近地点: 464.843km
远地点: 466.217km
周期: 93.906分钟
每日圈数: 15.334495
Detailed Information
固有亮度:
5
最大亮度:
2.5
卫星平台:
Starlink V1.0
覆盖范围:
全球
运营商:
太空探索技术公司
运营商所在国:
美国
制造商(研发单位):
太空探索技术公司
制造商所在国:
美国
使用方式:
暂无
Satellite Introduction
Starlink 计划是 SpaceX 推出的全球卫星互联网项目,通过发射低轨道卫星,为全球尤其是偏远地区提供高速、低延迟的互联网服务。自 2019 年起,Starlink 已部署数千颗卫星,旨在缩小全球数字鸿沟,推动互联网普及。该项目还为军事、航空等行业提供通信支持,带来广泛经济效益。
2D Orbit Map
3D Orbit Map
Orbit Altitude Analysis Chart
Orbit Inclination Analysis Chart
Orbit Comprehensive Analysis Chart
View Comprehensive Chart
Conjunction Data List
Event ID Objects TCA Miss Dist (km) Collision Risk Probability Collision Risk Index (CRI) Action
CDM_260902-025605-835706-955423
2026-09-02T
02:56:40+0000
1.247 km
极远距离
1.203179E-5 中风险 0.57
CDM_260904-213005-314206-955421
2026-09-04T
21:30:51+0000
2.333 km
极远距离
1.988332E-6 低风险 0.41